Total_Precipitation_Accumulation
0.00 0.00 0.00 0.00 0.00 0.00 0.00 0.00 0.00 0.00 0.00 0.02 0.03 0.03 0.03 0.03 0.03 0.08 0.07 0.05 0.05 0.06 0.10 0.12 0.10 0.10 0.10 0.10 0.08 0.08 0.12 0.14 0.09 0.09 0.07 0.07 0.07 0.11 0.08 0.06 0.06 0.06 0.06 0.09 0.07 0.07 0.10 0.04 0.07 0.07 0.02 0.02 0.01 0.01 0.02 0.09 0.09 0.08 0.10 0.13 0.13 0.12 0.05 0.03 0.08 0.08 0.25 0.16 0.21 0.21 0.07 0.11 0.07 0.07 0.07 0.08 0.08 0.11 0.07 0.00 0.00 0.00 0.00 0.00 0.00 0.00 0.00 0.00 0.00 0.00 0.00 0.00 0.00 0.00 0.00 0.00 0.00 0.00 0.00 0.00 0.00 0.00 0.00
0.00 0.00 0.00 0.00 0.00 0.00 0.00 0.00 0.00 0.00 0.00 0.00 0.01 0.01 0.03 0.04 0.04 0.05 0.03 0.02 0.02 0.03 0.05 0.08 0.09 0.09 0.07 0.08 0.05 0.05 0.07 0.07 0.08 0.08 0.14 0.13 0.13 0.13 0.13 0.11 0.11 0.07 0.05 0.04 0.04 0.04 0.08 0.09 0.02 0.02 0.01 0.01 0.04 0.04 0.03 0.04 0.04 0.07 0.12 0.10 0.10 0.15 0.10 0.01 0.16 0.16 0.22 0.27 0.19 0.19 0.13 0.14 0.09 0.09 0.19 0.19 0.19 0.13 0.11 0.08 0.08 0.01 0.00 0.00 0.00 0.00 0.00 0.00 0.02 0.02 0.00 0.00 0.00 0.00 0.00 0.00 0.00 0.00 0.00 0.00 0.00 0.00 0.00
0.00 0.00 0.00 0.00 0.00 0.00 0.00 0.00 0.00 0.00 0.00 0.00 0.00 0.00 0.01 0.03 0.03 0.02 0.03 0.03 0.03 0.03 0.03 0.03 0.07 0.07 0.10 0.08 0.03 0.03 0.02 0.03 0.05 0.05 0.11 0.12 0.12 0.12 0.12 0.12 0.12 0.12 0.06 0.04 0.06 0.06 0.07 0.06 0.05 0.05 0.04 0.03 0.01 0.01 0.04 0.03 0.03 0.04 0.06 0.10 0.10 0.11 0.16 0.05 0.02 0.02 0.18 0.28 0.17 0.17 0.15 0.15 0.15 0.15 0.14 0.23 0.23 0.20 0.12 0.06 0.06 0.02 0.00 0.00 0.00 0.00 0.00 0.02 0.04 0.04 0.05 0.00 0.00 0.00 0.00 0.00 0.00 0.00 0.00 0.00 0.00 0.00 0.00
0.00 0.00 0.00 0.00 0.00 0.00 0.00 0.00 0.00 0.00 0.00 0.00 0.00 0.00 0.00 0.01 0.01 0.02 0.03 0.03 0.03 0.03 0.03 0.03 0.05 0.05 0.07 0.07 0.04 0.04 0.03 0.02 0.02 0.02 0.10 0.11 0.11 0.13 0.12 0.13 0.13 0.11 0.10 0.06 0.03 0.03 0.07 0.06 0.04 0.04 0.04 0.03 0.02 0.02 0.02 0.01 0.01 0.01 0.03 0.02 0.02 0.05 0.09 0.05 0.03 0.03 0.06 0.25 0.24 0.24 0.17 0.17 0.13 0.13 0.13 0.13 0.13 0.22 0.19 0.12 0.12 0.17 0.13 0.08 0.06 0.06 0.00 0.00 0.02 0.02 0.06 0.06 0.00 0.00 0.00 0.00 0.00 0.00 0.00 0.00 0.00 0.00 0.00
0.00 0.00 0.00 0.00 0.00 0.00 0.00 0.00 0.00 0.00 0.00 0.00 0.00 0.00 0.00 0.00 0.00 0.00 0.01 0.02 0.02 0.02 0.03 0.04 0.05 0.05 0.05 0.05 0.04 0.04 0.03 0.03 0.04 0.04 0.04 0.09 0.09 0.11 0.10 0.10 0.10 0.11 0.10 0.06 0.05 0.05 0.03 0.02 0.07 0.07 0.02 0.04 0.03 0.03 0.02 0.03 0.03 0.03 0.03 0.02 0.02 0.03 0.01 0.02 0.04 0.04 0.03 0.16 0.25 0.25 0.12 0.15 0.21 0.21 0.14 0.19 0.19 0.13 0.18 0.14 0.14 0.08 0.10 0.09 0.06 0.06 0.02 0.00 0.00 0.00 0.05 0.05 0.02 0.02 0.04 0.04 0.04 0.00 0.00 0.00 0.00 0.00 0.00
0.00 0.00 0.00 0.00 0.00 0.00 0.00 0.00 0.00 0.00 0.00 0.00 0.00 0.00 0.00 0.00 0.00 0.00 0.00 0.01 0.01 0.02 0.02 0.04 0.08 0.08 0.05 0.06 0.05 0.05 0.04 0.03 0.06 0.06 0.06 0.09 0.09 0.10 0.11 0.12 0.12 0.10 0.11 0.08 0.04 0.04 0.03 0.02 0.02 0.02 0.01 0.01 0.03 0.03 0.04 0.06 0.06 0.06 0.06 0.03 0.03 0.05 0.02 0.01 0.06 0.06 0.14 0.08 0.23 0.23 0.14 0.22 0.20 0.20 0.12 0.29 0.29 0.20 0.17 0.08 0.08 0.14 0.05 0.03 0.04 0.04 0.08 0.03 0.00 0.00 0.02 0.03 0.03 0.03 0.05 0.06 0.06 0.10 0.00 0.00 0.00 0.00 0.00
0.00 0.00 0.00 0.00 0.00 0.00 0.00 0.00 0.00 0.00 0.00 0.00 0.00 0.00 0.00 0.00 0.00 0.00 0.00 0.01 0.01 0.02 0.02 0.04 0.07 0.07 0.06 0.06 0.05 0.05 0.06 0.07 0.07 0.07 0.07 0.11 0.11 0.12 0.12 0.13 0.13 0.13 0.08 0.09 0.04 0.04 0.04 0.01 0.02 0.02 0.01 0.02 0.02 0.02 0.02 0.01 0.01 0.04 0.06 0.06 0.06 0.10 0.08 0.06 0.08 0.08 0.17 0.31 0.23 0.23 0.25 0.25 0.30 0.30 0.22 0.29 0.29 0.25 0.18 0.18 0.18 0.08 0.16 0.09 0.01 0.01 0.06 0.06 0.01 0.01 0.00 0.01 0.03 0.03 0.02 0.03 0.03 0.10 0.00 0.00 0.00 0.00 0.00
0.00 0.00 0.00 0.00 0.00 0.00 0.00 0.00 0.00 0.00 0.00 0.00 0.00 0.00 0.00 0.00 0.00 0.00 0.00 0.01 0.01 0.01 0.02 0.02 0.04 0.04 0.06 0.04 0.05 0.05 0.08 0.07 0.06 0.06 0.06 0.07 0.07 0.11 0.12 0.08 0.08 0.10 0.11 0.07 0.04 0.04 0.02 0.04 0.03 0.03 0.03 0.01 0.01 0.01 0.01 0.01 0.01 0.01 0.01 0.02 0.02 0.07 0.19 0.05 0.09 0.09 0.17 0.36 0.27 0.27 0.44 0.36 0.33 0.33 0.33 0.26 0.26 0.28 0.22 0.26 0.26 0.10 0.08 0.08 0.10 0.10 0.01 0.00 0.03 0.03 0.00 0.00 0.01 0.01 0.02 0.00 0.00 0.12 0.02 0.02 0.02 0.00 0.00
0.00 0.00 0.00 0.00 0.00 0.00 0.00 0.00 0.00 0.00 0.00 0.00 0.00 0.00 0.00 0.00 0.00 0.00 0.00 0.00 0.00 0.00 0.01 0.02 0.01 0.01 0.01 0.01 0.04 0.04 0.03 0.05 0.06 0.06 0.07 0.07 0.07 0.04 0.06 0.11 0.11 0.11 0.09 0.09 0.07 0.07 0.05 0.05 0.04 0.04 0.03 0.02 0.02 0.02 0.01 0.01 0.01 0.01 0.01 0.01 0.01 0.00 0.18 0.24 0.04 0.04 0.04 0.26 0.38 0.38 0.43 0.44 0.38 0.38 0.32 0.27 0.27 0.25 0.21 0.23 0.23 0.26 0.14 0.07 0.04 0.04 0.14 0.13 0.00 0.00 0.01 0.00 0.00 0.00 0.00 0.00 0.00 0.10 0.05 0.04 0.04 0.01 0.00
0.00 0.00 0.00 0.00 0.00 0.00 0.00 0.00 0.00 0.00 0.00 0.00 0.00 0.00 0.00 0.00 0.00 0.00 0.00 0.00 0.00 0.00 0.01 0.02 0.01 0.01 0.02 0.01 0.01 0.01 0.02 0.04 0.04 0.04 0.06 0.03 0.03 0.04 0.04 0.07 0.07 0.07 0.08 0.10 0.10 0.10 0.05 0.05 0.05 0.05 0.02 0.03 0.02 0.02 0.01 0.02 0.02 0.02 0.01 0.01 0.01 0.00 0.00 0.26 0.05 0.05 0.12 0.05 0.40 0.40 0.54 0.43 0.36 0.36 0.31 0.28 0.28 0.27 0.23 0.23 0.23 0.15 0.13 0.17 0.05 0.05 0.05 0.09 0.16 0.16 0.00 0.02 0.00 0.00 0.00 0.00 0.00 0.10 0.05 0.02 0.02 0.01 0.00
0.00 0.00 0.00 0.00 0.00 0.00 0.00 0.00 0.00 0.00 0.00 0.00 0.00 0.00 0.00 0.00 0.00 0.00 0.00 0.00 0.00 0.00 0.00 0.00 0.01 0.01 0.01 0.01 0.01 0.01 0.03 0.05 0.03 0.03 0.06 0.02 0.02 0.02 0.02 0.01 0.01 0.08 0.04 0.07 0.07 0.07 0.08 0.06 0.09 0.09 0.05 0.03 0.03 0.03 0.03 0.04 0.04 0.03 0.02 0.01 0.01 0.01 0.00 0.02 0.32 0.32 0.31 0.17 0.30 0.30 0.47 0.47 0.37 0.37 0.29 0.28 0.28 0.27 0.36 0.30 0.30 0.21 0.06 0.13 0.08 0.08 0.04 0.06 0.15 0.15 0.10 0.04 0.00 0.00 0.00 0.00 0.00 0.07 0.08 0.04 0.04 0.02 0.02
0.00 0.00 0.00 0.00 0.00 0.00 0.00 0.00 0.00 0.00 0.00 0.00 0.00 0.00 0.00 0.00 0.00 0.00 0.00 0.00 0.00 0.00 0.00 0.00 0.00 0.00 0.01 0.01 0.02 0.02 0.02 0.02 0.07 0.07 0.02 0.08 0.08 0.06 0.01 0.01 0.01 0.02 0.00 0.01 0.08 0.08 0.10 0.09 0.04 0.04 0.07 0.06 0.03 0.03 0.03 0.03 0.03 0.03 0.03 0.02 0.02 0.03 0.03 0.01 0.01 0.01 0.31 0.33 0.28 0.28 0.51 0.44 0.29 0.29 0.32 0.32 0.32 0.27 0.26 0.33 0.33 0.38 0.23 0.10 0.13 0.13 0.07 0.02 0.07 0.07 0.12 0.08 0.03 0.03 0.00 0.00 0.00 0.00 0.07 0.10 0.10 0.02 0.01
0.00 0.00 0.00 0.00 0.00 0.00 0.00 0.00 0.00 0.00 0.00 0.00 0.00 0.00 0.00 0.00 0.00 0.00 0.00 0.00 0.00 0.00 0.00 0.00 0.00 0.00 0.01 0.01 0.01 0.01 0.01 0.01 0.01 0.01 0.00 0.02 0.02 0.05 0.07 0.01 0.01 0.00 0.00 0.00 0.00 0.00 0.03 0.08 0.06 0.06 0.07 0.06 0.05 0.05 0.05 0.04 0.04 0.04 0.04 0.06 0.06 0.07 0.06 0.03 0.02 0.02 0.01 0.28 0.41 0.41 0.51 0.41 0.26 0.26 0.35 0.34 0.34 0.30 0.26 0.25 0.25 0.32 0.35 0.31 0.07 0.07 0.10 0.01 0.05 0.05 0.09 0.08 0.06 0.06 0.02 0.00 0.00 0.00 0.06 0.10 0.10 0.09 0.00
0.00 0.00 0.00 0.00 0.00 0.00 0.00 0.00 0.00 0.00 0.00 0.00 0.00 0.00 0.00 0.00 0.00 0.00 0.00 0.00 0.00 0.00 0.00 0.00 0.00 0.00 0.00 0.02 0.01 0.01 0.01 0.01 0.00 0.00 0.00 0.00 0.00 0.00 0.00 0.05 0.05 0.03 0.04 0.00 0.00 0.00 0.00 0.02 0.03 0.03 0.04 0.04 0.04 0.04 0.03 0.05 0.05 0.06 0.05 0.04 0.04 0.06 0.06 0.07 0.08 0.08 0.06 0.02 0.38 0.38 0.43 0.49 0.19 0.19 0.15 0.34 0.34 0.31 0.26 0.30 0.30 0.30 0.32 0.24 0.22 0.22 0.08 0.11 0.02 0.02 0.04 0.03 0.06 0.06 0.03 0.01 0.01 0.00 0.00 0.04 0.04 0.08 0.07
0.00 0.00 0.00 0.00 0.00 0.00 0.00 0.00 0.00 0.00 0.00 0.00 0.00 0.00 0.00 0.00 0.00 0.00 0.00 0.00 0.00 0.00 0.00 0.00 0.00 0.00 0.00 0.01 0.00 0.00 0.01 0.01 0.01 0.01 0.00 0.00 0.00 0.00 0.00 0.00 0.00 0.00 0.00 0.06 0.03 0.03 0.00 0.00 0.00 0.00 0.02 0.03 0.03 0.03 0.01 0.02 0.02 0.03 0.04 0.09 0.09 0.10 0.09 0.10 0.07 0.07 0.10 0.13 0.24 0.24 0.23 0.42 0.37 0.37 0.15 0.30 0.30 0.34 0.30 0.27 0.27 0.26 0.33 0.21 0.19 0.19 0.11 0.17 0.17 0.17 0.02 0.02 0.05 0.05 0.02 0.01 0.01 0.00 0.02 0.05 0.05 0.03 0.05
0.00 0.00 0.00 0.00 0.00 0.00 0.00 0.00 0.00 0.00 0.00 0.00 0.00 0.00 0.00 0.00 0.00 0.00 0.00 0.00 0.00 0.00 0.00 0.00 0.00 0.00 0.00 0.00 0.01 0.01 0.01 0.01 0.00 0.00 0.00 0.00 0.00 0.00 0.00 0.00 0.00 0.00 0.00 0.00 0.01 0.01 0.05 0.03 0.01 0.01 0.01 0.01 0.02 0.02 0.01 0.02 0.02 0.03 0.04 0.05 0.05 0.06 0.06 0.07 0.05 0.05 0.15 0.22 0.22 0.22 0.16 0.36 0.38 0.38 0.48 0.31 0.31 0.25 0.29 0.29 0.29 0.27 0.29 0.17 0.14 0.14 0.19 0.21 0.17 0.17 0.19 0.10 0.01 0.01 0.04 0.01 0.01 0.00 0.03 0.06 0.06 0.09 0.00
0.00 0.00 0.00 0.00 0.00 0.00 0.00 0.00 0.00 0.00 0.00 0.00 0.00 0.00 0.00 0.00 0.00 0.00 0.00 0.00 0.00 0.00 0.00 0.00 0.00 0.00 0.00 0.00 0.00 0.00 0.00 0.00 0.00 0.00 0.00 0.00 0.00 0.00 0.00 0.00 0.00 0.01 0.01 0.01 0.01 0.01 0.01 0.04 0.05 0.05 0.02 0.01 0.01 0.01 0.01 0.02 0.02 0.01 0.02 0.02 0.02 0.04 0.04 0.05 0.05 0.05 0.09 0.29 0.22 0.22 0.19 0.24 0.30 0.30 0.33 0.51 0.51 0.32 0.34 0.43 0.43 0.25 0.28 0.26 0.13 0.13 0.17 0.20 0.19 0.19 0.15 0.11 0.09 0.09 0.01 0.00 0.00 0.01 0.00 0.06 0.06 0.09 0.07
0.00 0.00 0.00 0.00 0.00 0.00 0.00 0.00 0.00 0.00 0.00 0.00 0.00 0.00 0.00 0.00 0.00 0.00 0.00 0.00 0.00 0.00 0.00 0.00 0.00 0.00 0.00 0.00 0.00 0.00 0.00 0.00 0.00 0.00 0.00 0.00 0.00 0.00 0.00 0.00 0.00 0.01 0.02 0.03 0.05 0.05 0.05 0.12 0.08 0.08 0.05 0.01 0.01 0.01 0.01 0.02 0.02 0.01 0.01 0.02 0.02 0.03 0.04 0.05 0.07 0.07 0.15 0.31 0.27 0.27 0.28 0.27 0.25 0.25 0.21 0.44 0.44 0.45 0.32 0.31 0.31 0.36 0.31 0.28 0.23 0.23 0.15 0.15 0.20 0.20 0.14 0.09 0.12 0.12 0.13 0.12 0.12 0.00 0.02 0.01 0.01 0.10 0.10
0.00 0.00 0.00 0.00 0.00 0.00 0.00 0.00 0.00 0.00 0.00 0.00 0.00 0.00 0.00 0.00 0.00 0.00 0.00 0.00 0.00 0.00 0.00 0.00 0.00 0.00 0.00 0.00 0.00 0.00 0.00 0.00 0.00 0.00 0.00 0.00 0.00 0.00 0.00 0.00 0.00 0.03 0.04 0.08 0.14 0.14 0.14 0.10 0.13 0.13 0.14 0.08 0.03 0.03 0.10 0.05 0.05 0.01 0.01 0.05 0.05 0.05 0.04 0.04 0.05 0.05 0.20 0.34 0.32 0.32 0.34 0.30 0.25 0.25 0.23 0.24 0.24 0.48 0.49 0.36 0.36 0.32 0.31 0.21 0.27 0.27 0.19 0.27 0.14 0.14 0.17 0.07 0.11 0.11 0.10 0.11 0.11 0.11 0.01 0.01 0.01 0.01 0.09
0.00 0.00 0.00 0.00 0.00 0.00 0.00 0.00 0.00 0.00 0.00 0.00 0.00 0.00 0.00 0.00 0.00 0.00 0.00 0.00 0.00 0.00 0.00 0.00 0.00 0.00 0.01 0.00 0.00 0.00 0.00 0.00 0.01 0.01 0.01 0.01 0.01 0.03 0.03 0.06 0.06 0.06 0.03 0.01 0.02 0.02 0.02 0.04 0.07 0.07 0.10 0.12 0.08 0.08 0.09 0.09 0.09 0.07 0.07 0.06 0.06 0.17 0.17 0.17 0.26 0.26 0.27 0.33 0.29 0.29 0.28 0.36 0.30 0.30 0.28 0.14 0.14 0.13 0.34 0.33 0.33 0.40 0.25 0.29 0.35 0.35 0.28 0.28 0.35 0.35 0.28 0.28 0.16 0.16 0.19 0.13 0.13 0.07 0.14 0.14 0.14 0.00 0.01
0.00 0.00 0.00 0.00 0.00 0.00 0.00 0.00 0.00 0.00 0.00 0.00 0.00 0.00 0.00 0.00 0.00 0.00 0.00 0.00 0.00 0.00 0.00 0.00 0.00 0.00 0.00 0.00 0.01 0.01 0.01 0.00 0.00 0.00 0.01 0.01 0.01 0.03 0.07 0.03 0.03 0.02 0.03 0.08 0.08 0.08 0.10 0.12 0.13 0.13 0.12 0.10 0.09 0.09 0.06 0.06 0.06 0.07 0.05 0.12 0.12 0.22 0.22 0.24 0.31 0.31 0.31 0.32 0.26 0.26 0.28 0.35 0.29 0.29 0.37 0.24 0.24 0.16 0.14 0.29 0.29 0.38 0.39 0.27 0.25 0.25 0.31 0.28 0.32 0.32 0.39 0.40 0.30 0.30 0.16 0.15 0.15 0.14 0.08 0.12 0.12 0.11 0.01
0.00 0.00 0.00 0.00 0.00 0.00 0.00 0.00 0.00 0.00 0.00 0.00 0.00 0.00 0.00 0.00 0.00 0.00 0.00 0.00 0.00 0.00 0.00 0.00 0.00 0.00 0.00 0.00 0.01 0.01 0.00 0.00 0.00 0.00 0.01 0.02 0.02 0.01 0.01 0.01 0.01 0.05 0.08 0.11 0.13 0.13 0.27 0.13 0.10 0.10 0.07 0.10 0.07 0.07 0.07 0.05 0.05 0.05 0.03 0.03 0.03 0.06 0.23 0.30 0.12 0.12 0.27 0.29 0.32 0.32 0.35 0.33 0.38 0.38 0.44 0.38 0.38 0.19 0.15 0.15 0.15 0.31 0.34 0.28 0.23 0.23 0.30 0.28 0.36 0.36 0.29 0.43 0.41 0.41 0.41 0.32 0.32 0.13 0.14 0.10 0.10 0.12 0.10
0.00 0.00 0.00 0.00 0.00 0.00 0.00 0.00 0.00 0.00 0.00 0.00 0.00 0.00 0.00 0.00 0.00 0.00 0.00 0.00 0.00 0.00 0.00 0.00 0.00 0.00 0.00 0.00 0.00 0.00 0.00 0.00 0.00 0.00 0.00 0.00 0.00 0.02 0.00 0.01 0.01 0.04 0.12 0.16 0.26 0.26 0.40 0.40 0.20 0.20 0.10 0.07 0.08 0.08 0.11 0.06 0.06 0.04 0.03 0.05 0.05 0.17 0.09 0.05 0.07 0.07 0.12 0.21 0.29 0.29 0.41 0.41 0.35 0.35 0.40 0.37 0.37 0.29 0.31 0.22 0.22 0.16 0.33 0.30 0.22 0.22 0.20 0.30 0.30 0.30 0.34 0.34 0.47 0.47 0.57 0.56 0.56 0.25 0.10 0.17 0.17 0.08 0.08
0.00 0.00 0.00 0.00 0.00 0.00 0.00 0.00 0.00 0.00 0.00 0.00 0.00 0.00 0.00 0.00 0.00 0.00 0.00 0.00 0.00 0.00 0.00 0.00 0.00 0.00 0.00 0.00 0.00 0.00 0.01 0.00 0.00 0.00 0.00 0.00 0.00 0.00 0.00 0.00 0.00 0.02 0.10 0.13 0.16 0.16 0.24 0.36 0.37 0.37 0.25 0.14 0.10 0.10 0.07 0.07 0.07 0.03 0.02 0.03 0.03 0.13 0.21 0.13 0.15 0.15 0.17 0.21 0.26 0.26 0.31 0.42 0.43 0.43 0.44 0.39 0.39 0.39 0.36 0.44 0.44 0.25 0.32 0.34 0.36 0.36 0.22 0.28 0.34 0.34 0.35 0.37 0.46 0.46 0.48 0.51 0.51 0.53 0.24 0.19 0.19 0.18 0.06
0.00 0.00 0.00 0.00 0.00 0.00 0.00 0.00 0.00 0.00 0.00 0.00 0.00 0.00 0.00 0.00 0.00 0.00 0.00 0.00 0.00 0.00 0.00 0.00 0.00 0.00 0.00 0.00 0.00 0.00 0.00 0.00 0.00 0.00 0.00 0.00 0.00 0.00 0.00 0.00 0.00 0.00 0.04 0.08 0.09 0.09 0.06 0.17 0.33 0.33 0.34 0.27 0.24 0.24 0.15 0.06 0.06 0.02 0.02 0.02 0.02 0.05 0.14 0.09 0.18 0.18 0.22 0.25 0.28 0.28 0.30 0.40 0.39 0.39 0.42 0.34 0.34 0.38 0.42 0.40 0.40 0.41 0.36 0.38 0.38 0.38 0.38 0.34 0.33 0.33 0.32 0.33 0.42 0.42 0.41 0.43 0.43 0.55 0.42 0.15 0.15 0.15 0.13
0.00 0.00 0.00 0.00 0.00 0.00 0.00 0.00 0.00 0.00 0.00 0.00 0.00 0.00 0.00 0.00 0.00 0.00 0.00 0.00 0.00 0.00 0.00 0.00 0.00 0.00 0.00 0.00 0.00 0.00 0.00 0.00 0.01 0.01 0.00 0.00 0.00 0.00 0.00 0.00 0.00 0.00 0.01 0.03 0.03 0.03 0.04 0.07 0.17 0.17 0.43 0.41 0.43 0.43 0.20 0.16 0.16 0.06 0.04 0.05 0.05 0.03 0.09 0.10 0.11 0.11 0.17 0.20 0.27 0.27 0.27 0.30 0.43 0.43 0.40 0.44 0.44 0.40 0.39 0.42 0.42 0.42 0.40 0.51 0.43 0.43 0.48 0.64 0.42 0.42 0.39 0.44 0.32 0.32 0.45 0.40 0.40 0.68 0.52 0.29 0.29 0.17 0.14
0.00 0.00 0.00 0.00 0.00 0.00 0.00 0.00 0.00 0.00 0.00 0.00 0.00 0.00 0.00 0.00 0.00 0.00 0.00 0.00 0.00 0.00 0.00 0.00 0.00 0.00 0.00 0.00 0.00 0.00 0.00 0.00 0.00 0.00 0.00 0.00 0.00 0.00 0.00 0.00 0.00 0.00 0.00 0.01 0.04 0.04 0.06 0.03 0.05 0.05 0.16 0.22 0.35 0.35 0.39 0.22 0.22 0.12 0.13 0.10 0.10 0.10 0.03 0.06 0.08 0.08 0.13 0.14 0.17 0.17 0.29 0.28 0.36 0.36 0.38 0.40 0.40 0.45 0.47 0.44 0.44 0.47 0.47 0.56 0.60 0.60 0.61 0.69 0.70 0.70 0.55 0.58 0.51 0.51 0.42 0.52 0.52 0.43 0.59 0.31 0.31 0.25 0.19
0.00 0.00 0.00 0.00 0.00 0.00 0.00 0.00 0.00 0.00 0.00 0.00 0.00 0.00 0.00 0.00 0.00 0.00 0.00 0.00 0.00 0.00 0.00 0.00 0.00 0.00 0.00 0.00 0.00 0.00 0.00 0.00 0.00 0.00 0.00 0.00 0.00 0.00 0.00 0.00 0.00 0.00 0.00 0.00 0.03 0.03 0.04 0.03 0.02 0.02 0.07 0.09 0.16 0.16 0.30 0.32 0.32 0.19 0.19 0.12 0.12 0.10 0.11 0.13 0.07 0.07 0.08 0.14 0.18 0.18 0.21 0.29 0.36 0.36 0.39 0.40 0.40 0.41 0.47 0.43 0.43 0.47 0.50 0.60 0.61 0.61 0.67 0.71 0.75 0.75 0.72 0.69 0.61 0.61 0.60 0.63 0.63 0.63 0.67 0.35 0.35 0.15 0.21
0.00 0.00 0.00 0.00 0.00 0.00 0.00 0.00 0.00 0.00 0.00 0.00 0.00 0.00 0.00 0.00 0.00 0.00 0.00 0.00 0.00 0.00 0.00 0.00 0.00 0.00 0.00 0.00 0.00 0.00 0.00 0.00 0.00 0.00 0.00 0.00 0.00 0.00 0.00 0.00 0.00 0.00 0.00 0.00 0.01 0.01 0.02 0.02 0.01 0.01 0.04 0.07 0.12 0.12 0.17 0.32 0.32 0.30 0.28 0.19 0.19 0.15 0.14 0.20 0.15 0.15 0.13 0.13 0.19 0.19 0.21 0.21 0.28 0.28 0.31 0.42 0.42 0.44 0.49 0.54 0.54 0.42 0.51 0.55 0.63 0.63 0.70 0.79 0.77 0.77 0.75 0.77 0.72 0.72 0.62 0.66 0.66 0.70 0.79 0.81 0.81 0.15 0.10
0.00 0.00 0.00 0.00 0.00 0.00 0.00 0.00 0.00 0.00 0.00 0.00 0.00 0.00 0.00 0.00 0.00 0.00 0.00 0.00 0.00 0.00 0.00 0.00 0.00 0.00 0.00 0.00 0.00 0.00 0.00 0.00 0.00 0.00 0.00 0.00 0.00 0.00 0.00 0.00 0.00 0.00 0.00 0.00 0.00 0.00 0.01 0.01 0.01 0.01 0.05 0.12 0.17 0.17 0.14 0.17 0.17 0.32 0.24 0.18 0.18 0.20 0.22 0.25 0.18 0.18 0.17 0.15 0.19 0.19 0.19 0.24 0.29 0.29 0.30 0.34 0.34 0.45 0.49 0.51 0.51 0.50 0.46 0.54 0.63 0.63 0.71 0.79 0.85 0.85 0.80 0.81 0.83 0.83 0.77 0.73 0.73 0.71 0.86 0.81 0.81 0.78 0.15
0.00 0.00 0.00 0.00 0.00 0.00 0.00 0.00 0.00 0.00 0.00 0.00 0.00 0.00 0.00 0.00 0.00 0.00 0.00 0.00 0.00 0.00 0.00 0.00 0.00 0.00 0.00 0.00 0.00 0.00 0.00 0.00 0.00 0.00 0.00 0.00 0.00 0.00 0.00 0.00 0.00 0.00 0.00 0.00 0.00 0.00 0.00 0.02 0.01 0.01 0.05 0.09 0.13 0.13 0.16 0.17 0.17 0.13 0.15 0.13 0.13 0.13 0.22 0.23 0.25 0.25 0.19 0.19 0.20 0.20 0.20 0.22 0.24 0.24 0.33 0.37 0.37 0.41 0.52 0.52 0.52 0.54 0.56 0.55 0.60 0.60 0.67 0.76 0.87 0.87 0.92 0.84 0.80 0.80 0.81 0.83 0.83 0.73 0.79 0.84 0.84 0.86 0.63
0.00 0.00 0.00 0.00 0.00 0.00 0.00 0.00 0.00 0.00 0.00 0.00 0.00 0.00 0.00 0.00 0.00 0.00 0.00 0.00 0.00 0.00 0.00 0.00 0.00 0.00 0.00 0.00 0.00 0.00 0.00 0.00 0.00 0.00 0.00 0.00 0.00 0.00 0.00 0.00 0.00 0.00 0.00 0.00 0.00 0.00 0.00 0.02 0.03 0.03 0.02 0.05 0.08 0.08 0.09 0.12 0.12 0.11 0.09 0.11 0.11 0.12 0.14 0.17 0.23 0.23 0.22 0.19 0.19 0.19 0.21 0.22 0.23 0.23 0.27 0.37 0.37 0.45 0.47 0.50 0.50 0.52 0.54 0.60 0.63 0.63 0.66 0.85 0.91 0.91 0.97 0.97 0.78 0.78 0.80 0.86 0.86 0.83 0.84 0.92 0.92 0.89 0.75
0.00 0.00 0.00 0.00 0.00 0.00 0.00 0.00 0.00 0.00 0.00 0.00 0.00 0.00 0.00 0.00 0.00 0.00 0.00 0.00 0.00 0.00 0.00 0.00 0.00 0.00 0.00 0.00 0.00 0.00 0.00 0.00 0.00 0.00 0.00 0.00 0.00 0.00 0.00 0.00 0.00 0.00 0.00 0.00 0.00 0.00 0.00 0.00 0.01 0.01 0.03 0.04 0.08 0.08 0.08 0.09 0.09 0.09 0.10 0.09 0.09 0.11 0.13 0.21 0.21 0.21 0.20 0.20 0.20 0.20 0.20 0.23 0.25 0.25 0.26 0.31 0.31 0.41 0.42 0.46 0.46 0.50 0.50 0.57 0.61 0.61 0.72 0.80 1.01 1.01 0.97 1.10 0.97 0.97 0.81 0.88 0.88 0.85 0.85 0.91 0.91 0.91 0.77
0.00 0.00 0.00 0.00 0.00 0.00 0.00 0.00 0.00 0.00 0.00 0.00 0.00 0.00 0.00 0.00 0.00 0.00 0.00 0.00 0.00 0.00 0.00 0.00 0.00 0.00 0.00 0.00 0.00 0.00 0.00 0.00 0.00 0.00 0.00 0.00 0.00 0.00 0.00 0.00 0.00 0.00 0.00 0.00 0.00 0.00 0.00 0.00 0.00 0.00 0.00 0.01 0.04 0.04 0.06 0.08 0.08 0.08 0.07 0.09 0.09 0.10 0.13 0.14 0.20 0.20 0.17 0.15 0.19 0.19 0.20 0.22 0.24 0.24 0.26 0.29 0.29 0.38 0.41 0.45 0.45 0.46 0.48 0.54 0.59 0.59 0.70 0.81 0.94 0.94 1.13 1.17 1.08 1.08 0.93 0.77 0.77 0.94 0.86 0.89 0.89 0.91 0.94
0.00 0.00 0.00 0.00 0.00 0.00 0.00 0.00 0.00 0.00 0.00 0.00 0.00 0.00 0.00 0.00 0.00 0.00 0.00 0.00 0.00 0.00 0.00 0.00 0.00 0.00 0.00 0.00 0.00 0.00 0.00 0.00 0.00 0.00 0.00 0.00 0.00 0.00 0.00 0.00 0.00 0.00 0.00 0.00 0.00 0.00 0.00 0.01 0.00 0.00 0.01 0.01 0.02 0.02 0.02 0.04 0.04 0.04 0.05 0.08 0.08 0.10 0.09 0.13 0.13 0.13 0.17 0.11 0.09 0.09 0.16 0.17 0.16 0.16 0.21 0.23 0.23 0.29 0.30 0.38 0.38 0.44 0.42 0.45 0.54 0.54 0.53 0.63 0.86 0.86 0.97 1.00 1.10 1.10 1.04 0.90 0.90 0.82 0.91 0.78 0.78 0.86 0.94
0.00 0.00 0.00 0.00 0.00 0.00 0.00 0.00 0.00 0.00 0.00 0.00 0.00 0.00 0.00 0.00 0.00 0.00 0.00 0.00 0.00 0.00 0.00 0.00 0.00 0.00 0.00 0.00 0.00 0.00 0.00 0.00 0.00 0.00 0.00 0.00 0.00 0.00 0.00 0.00 0.00 0.00 0.00 0.00 0.00 0.00 0.00 0.01 0.02 0.02 0.02 0.01 0.03 0.03 0.02 0.02 0.02 0.03 0.04 0.05 0.05 0.08 0.07 0.08 0.12 0.12 0.14 0.12 0.09 0.09 0.07 0.12 0.10 0.10 0.13 0.20 0.20 0.21 0.19 0.29 0.29 0.39 0.37 0.42 0.42 0.42 0.48 0.51 0.71 0.71 0.82 0.83 0.94 0.94 0.96 0.95 0.95 0.77 0.87 0.82 0.82 0.69 0.84
0.00 0.00 0.00 0.00 0.00 0.00 0.00 0.00 0.00 0.00 0.00 0.00 0.00 0.00 0.00 0.00 0.00 0.00 0.00 0.00 0.00 0.00 0.00 0.00 0.00 0.00 0.00 0.00 0.00 0.00 0.00 0.00 0.00 0.00 0.00 0.00 0.00 0.00 0.00 0.00 0.00 0.00 0.00 0.00 0.00 0.00 0.00 0.00 0.02 0.02 0.01 0.02 0.01 0.01 0.04 0.03 0.03 0.05 0.05 0.04 0.04 0.04 0.03 0.06 0.09 0.09 0.13 0.12 0.09 0.09 0.07 0.06 0.05 0.05 0.09 0.12 0.12 0.16 0.15 0.19 0.19 0.30 0.31 0.37 0.44 0.44 0.47 0.57 0.53 0.53 0.73 0.80 0.87 0.87 0.92 1.03 1.03 0.90 0.73 0.95 0.95 0.78 0.72
0.00 0.00 0.00 0.00 0.00 0.00 0.00 0.00 0.00 0.00 0.00 0.00 0.00 0.00 0.00 0.00 0.00 0.00 0.00 0.00 0.00 0.00 0.00 0.00 0.00 0.00 0.00 0.00 0.00 0.00 0.00 0.00 0.00 0.00 0.00 0.00 0.00 0.00 0.00 0.00 0.00 0.00 0.00 0.00 0.00 0.00 0.00 0.00 0.00 0.00 0.00 0.01 0.02 0.02 0.02 0.04 0.04 0.06 0.07 0.08 0.08 0.03 0.03 0.03 0.07 0.07 0.09 0.12 0.10 0.10 0.07 0.06 0.05 0.05 0.05 0.08 0.08 0.12 0.15 0.17 0.17 0.20 0.27 0.27 0.36 0.36 0.43 0.52 0.54 0.54 0.60 0.83 0.94 0.94 1.04 1.12 1.12 1.09 0.93 0.88 0.88 1.06 0.81
0.00 0.00 0.00 0.00 0.00 0.00 0.00 0.00 0.00 0.00 0.00 0.00 0.00 0.00 0.00 0.00 0.00 0.00 0.00 0.00 0.00 0.00 0.00 0.00 0.00 0.00 0.00 0.00 0.00 0.00 0.00 0.00 0.00 0.00 0.00 0.00 0.00 0.00 0.00 0.00 0.00 0.00 0.00 0.00 0.00 0.00 0.00 0.00 0.00 0.00 0.00 0.00 0.01 0.01 0.01 0.01 0.01 0.07 0.09 0.09 0.09 0.06 0.06 0.03 0.03 0.03 0.12 0.13 0.15 0.15 0.11 0.08 0.09 0.09 0.07 0.05 0.05 0.12 0.16 0.16 0.16 0.20 0.23 0.31 0.31 0.31 0.32 0.40 0.58 0.58 0.54 0.60 0.89 0.89 1.05 1.14 1.14 1.13 1.05 1.01 1.01 0.93 1.07
0.00 0.00 0.00 0.00 0.00 0.00 0.00 0.00 0.00 0.00 0.00 0.00 0.00 0.00 0.00 0.00 0.00 0.00 0.00 0.00 0.00 0.00 0.00 0.00 0.00 0.00 0.00 0.00 0.00 0.00 0.00 0.00 0.00 0.00 0.00 0.00 0.00 0.00 0.00 0.00 0.00 0.00 0.00 0.00 0.00 0.00 0.00 0.00 0.00 0.00 0.00 0.00 0.00 0.00 0.01 0.00 0.00 0.02 0.09 0.11 0.11 0.12 0.13 0.08 0.04 0.04 0.08 0.12 0.16 0.16 0.16 0.12 0.12 0.12 0.10 0.08 0.08 0.10 0.17 0.17 0.17 0.20 0.21 0.27 0.33 0.33 0.32 0.36 0.48 0.48 0.58 0.55 0.63 0.63 0.91 0.91 0.91 1.11 1.11 0.98 0.98 0.98 0.92
0.00 0.00 0.00 0.00 0.00 0.00 0.00 0.00 0.00 0.00 0.00 0.00 0.00 0.00 0.00 0.00 0.00 0.00 0.00 0.00 0.00 0.00 0.00 0.00 0.00 0.00 0.00 0.00 0.00 0.00 0.00 0.00 0.00 0.00 0.00 0.00 0.00 0.00 0.00 0.00 0.00 0.00 0.00 0.00 0.00 0.00 0.00 0.00 0.00 0.00 0.00 0.00 0.00 0.00 0.01 0.01 0.01 0.01 0.02 0.13 0.13 0.13 0.16 0.17 0.12 0.12 0.07 0.11 0.15 0.15 0.18 0.16 0.15 0.15 0.11 0.08 0.08 0.07 0.11 0.18 0.18 0.18 0.20 0.23 0.30 0.30 0.30 0.33 0.32 0.32 0.52 0.52 0.57 0.57 0.76 0.87 0.87 0.94 1.05 0.99 0.99 0.80 0.98
0.00 0.00 0.00 0.00 0.00 0.00 0.00 0.00 0.00 0.00 0.00 0.00 0.00 0.00 0.00 0.00 0.00 0.00 0.00 0.00 0.00 0.00 0.00 0.00 0.00 0.00 0.00 0.01 0.00 0.00 0.00 0.00 0.00 0.00 0.00 0.00 0.00 0.00 0.00 0.00 0.00 0.00 0.00 0.00 0.00 0.00 0.00 0.00 0.00 0.00 0.00 0.00 0.00 0.00 0.00 0.01 0.01 0.01 0.00 0.06 0.06 0.16 0.17 0.18 0.21 0.21 0.17 0.20 0.17 0.17 0.19 0.20 0.18 0.18 0.14 0.09 0.09 0.08 0.06 0.13 0.13 0.17 0.16 0.19 0.25 0.25 0.27 0.30 0.31 0.31 0.32 0.40 0.54 0.54 0.72 0.78 0.78 0.89 1.00 0.96 0.96 0.91 0.97
0.00 0.00 0.00 0.00 0.00 0.00 0.00 0.00 0.00 0.00 0.00 0.00 0.00 0.00 0.00 0.00 0.00 0.00 0.00 0.00 0.00 0.00 0.00 0.00 0.00 0.00 0.00 0.02 0.02 0.02 0.01 0.00 0.00 0.00 0.00 0.00 0.00 0.00 0.00 0.00 0.00 0.00 0.00 0.00 0.00 0.00 0.00 0.00 0.00 0.00 0.00 0.00 0.00 0.00 0.00 0.00 0.00 0.00 0.01 0.01 0.01 0.01 0.11 0.19 0.21 0.21 0.25 0.26 0.23 0.23 0.21 0.26 0.31 0.31 0.31 0.20 0.20 0.19 0.11 0.07 0.07 0.11 0.11 0.12 0.18 0.18 0.22 0.27 0.28 0.28 0.30 0.31 0.38 0.38 0.41 0.65 0.65 0.83 0.80 0.84 0.84 0.88 0.80
0.00 0.00 0.00 0.00 0.00 0.00 0.00 0.00 0.00 0.00 0.00 0.00 0.00 0.00 0.00 0.00 0.00 0.00 0.00 0.00 0.00 0.00 0.00 0.00 0.00 0.00 0.01 0.02 0.02 0.02 0.01 0.00 0.00 0.00 0.00 0.00 0.00 0.00 0.00 0.00 0.00 0.00 0.00 0.00 0.00 0.00 0.00 0.00 0.00 0.00 0.00 0.00 0.00 0.00 0.00 0.00 0.00 0.00 0.00 0.00 0.00 0.00 0.03 0.14 0.20 0.20 0.22 0.27 0.26 0.26 0.22 0.18 0.27 0.27 0.33 0.37 0.37 0.29 0.19 0.12 0.12 0.08 0.10 0.12 0.13 0.13 0.18 0.26 0.29 0.29 0.29 0.30 0.36 0.36 0.39 0.44 0.44 0.77 0.92 0.89 0.89 0.84 0.78
0.00 0.00 0.00 0.00 0.00 0.00 0.00 0.00 0.00 0.00 0.00 0.00 0.00 0.00 0.00 0.00 0.00 0.00 0.00 0.00 0.00 0.00 0.00 0.01 0.00 0.00 0.01 0.02 0.01 0.01 0.01 0.00 0.00 0.00 0.00 0.00 0.00 0.00 0.00 0.00 0.00 0.00 0.00 0.00 0.00 0.00 0.00 0.00 0.00 0.00 0.00 0.00 0.00 0.00 0.00 0.00 0.00 0.00 0.01 0.00 0.00 0.01 0.01 0.06 0.20 0.20 0.21 0.23 0.26 0.26 0.25 0.23 0.19 0.19 0.24 0.34 0.34 0.31 0.27 0.18 0.18 0.13 0.13 0.12 0.13 0.13 0.15 0.21 0.27 0.27 0.29 0.31 0.35 0.35 0.38 0.45 0.45 0.47 0.90 0.95 0.95 0.74 0.66
0.00 0.00 0.00 0.00 0.00 0.00 0.00 0.00 0.00 0.00 0.00 0.00 0.00 0.00 0.00 0.00 0.00 0.00 0.00 0.00 0.00 0.00 0.00 0.01 0.01 0.01 0.01 0.01 0.00 0.00 0.00 0.00 0.00 0.00 0.00 0.00 0.00 0.00 0.00 0.00 0.00 0.00 0.00 0.00 0.00 0.00 0.00 0.00 0.00 0.00 0.00 0.00 0.00 0.00 0.00 0.00 0.00 0.00 0.00 0.00 0.00 0.02 0.01 0.00 0.09 0.09 0.13 0.21 0.22 0.22 0.25 0.24 0.22 0.22 0.20 0.22 0.22 0.22 0.28 0.25 0.25 0.17 0.16 0.12 0.11 0.11 0.12 0.15 0.24 0.24 0.25 0.31 0.32 0.32 0.36 0.43 0.43 0.47 0.57 0.83 0.83 0.76 0.54
0.00 0.00 0.00 0.00 0.00 0.00 0.00 0.00 0.00 0.00 0.00 0.00 0.00 0.00 0.00 0.00 0.00 0.00 0.00 0.00 0.00 0.00 0.00 0.01 0.02 0.02 0.01 0.00 0.00 0.00 0.00 0.00 0.01 0.01 0.01 0.00 0.00 0.00 0.00 0.00 0.00 0.00 0.00 0.00 0.00 0.00 0.00 0.00 0.00 0.00 0.00 0.00 0.00 0.00 0.00 0.00 0.00 0.01 0.01 0.00 0.00 0.01 0.01 0.01 0.03 0.03 0.05 0.14 0.22 0.22 0.23 0.25 0.23 0.23 0.21 0.20 0.20 0.21 0.23 0.25 0.25 0.25 0.22 0.15 0.11 0.11 0.12 0.13 0.14 0.14 0.14 0.31 0.34 0.34 0.37 0.39 0.39 0.47 0.52 0.55 0.55 0.77 0.64
0.00 0.00 0.00 0.00 0.00 0.00 0.00 0.00 0.00 0.00 0.00 0.00 0.00 0.00 0.00 0.00 0.00 0.00 0.00 0.00 0.00 0.00 0.01 0.02 0.02 0.02 0.01 0.01 0.00 0.00 0.00 0.00 0.01 0.01 0.01 0.01 0.01 0.00 0.00 0.00 0.00 0.00 0.00 0.00 0.00 0.00 0.00 0.00 0.00 0.00 0.00 0.00 0.00 0.00 0.00 0.00 0.00 0.00 0.00 0.01 0.01 0.00 0.03 0.04 0.04 0.04 0.02 0.06 0.15 0.15 0.22 0.23 0.24 0.24 0.23 0.23 0.23 0.25 0.24 0.24 0.24 0.24 0.21 0.23 0.13 0.13 0.16 0.14 0.15 0.15 0.15 0.15 0.35 0.35 0.40 0.47 0.47 0.46 0.46 0.49 0.49 0.64 0.78
0.00 0.00 0.00 0.00 0.00 0.00 0.00 0.00 0.00 0.00 0.00 0.00 0.00 0.00 0.00 0.00 0.00 0.00 0.00 0.00 0.00 0.01 0.02 0.02 0.02 0.02 0.01 0.01 0.01 0.01 0.00 0.00 0.00 0.00 0.01 0.02 0.02 0.00 0.00 0.00 0.00 0.00 0.00 0.00 0.00 0.00 0.00 0.00 0.00 0.00 0.00 0.00 0.00 0.00 0.00 0.00 0.00 0.00 0.00 0.00 0.00 0.00 0.00 0.04 0.02 0.02 0.02 0.03 0.08 0.08 0.16 0.15 0.23 0.23 0.25 0.26 0.26 0.27 0.28 0.29 0.29 0.30 0.28 0.18 0.23 0.23 0.21 0.17 0.14 0.14 0.15 0.16 0.17 0.17 0.40 0.45 0.45 0.55 0.56 0.47 0.47 0.54 0.71
0.00 0.00 0.00 0.00 0.00 0.00 0.00 0.00 0.00 0.00 0.00 0.00 0.00 0.00 0.00 0.00 0.00 0.00 0.00 0.00 0.00 0.00 0.03 0.02 0.01 0.01 0.02 0.02 0.01 0.01 0.00 0.01 0.01 0.01 0.01 0.03 0.03 0.03 0.01 0.01 0.01 0.00 0.00 0.00 0.00 0.00 0.00 0.00 0.00 0.00 0.00 0.00 0.00 0.00 0.00 0.00 0.00 0.00 0.00 0.00 0.00 0.00 0.00 0.00 0.01 0.01 0.01 0.03 0.05 0.05 0.08 0.09 0.16 0.16 0.25 0.26 0.26 0.28 0.29 0.32 0.32 0.32 0.37 0.28 0.21 0.21 0.18 0.17 0.13 0.13 0.13 0.16 0.19 0.19 0.22 0.46 0.46 0.53 0.61 0.59 0.59 0.51 0.72
0.00 0.00 0.00 0.00 0.00 0.00 0.00 0.00 0.00 0.00 0.00 0.00 0.00 0.00 0.00 0.00 0.00 0.00 0.00 0.00 0.00 0.02 0.03 0.03 0.02 0.02 0.02 0.03 0.02 0.02 0.01 0.01 0.01 0.01 0.03 0.04 0.04 0.05 0.05 0.06 0.06 0.00 0.00 0.00 0.00 0.00 0.00 0.00 0.00 0.00 0.00 0.00 0.00 0.00 0.00 0.00 0.00 0.00 0.00 0.00 0.00 0.00 0.00 0.00 0.03 0.03 0.03 0.03 0.02 0.02 0.06 0.06 0.13 0.13 0.22 0.30 0.30 0.34 0.35 0.38 0.38 0.39 0.41 0.38 0.26 0.26 0.24 0.18 0.12 0.12 0.09 0.14 0.16 0.16 0.16 0.19 0.19 0.50 0.63 0.62 0.62 0.47 0.45
0.00 0.00 0.00 0.00 0.00 0.00 0.00 0.00 0.00 0.00 0.00 0.00 0.00 0.00 0.00 0.00 0.00 0.00 0.00 0.01 0.01 0.03 0.03 0.04 0.03 0.03 0.02 0.02 0.01 0.01 0.01 0.01 0.01 0.01 0.04 0.06 0.06 0.03 0.06 0.04 0.04 0.02 0.00 0.00 0.00 0.00 0.00 0.00 0.00 0.00 0.00 0.00 0.00 0.00 0.00 0.00 0.00 0.00 0.00 0.00 0.00 0.00 0.00 0.00 0.00 0.00 0.00 0.01 0.03 0.03 0.03 0.03 0.09 0.09 0.17 0.27 0.27 0.31 0.33 0.37 0.37 0.38 0.38 0.39 0.32 0.32 0.30 0.26 0.18 0.18 0.16 0.09 0.14 0.14 0.17 0.16 0.16 0.27 0.42 0.62 0.62 0.48 0.43
0.00 0.00 0.00 0.00 0.00 0.00 0.00 0.00 0.00 0.00 0.00 0.00 0.00 0.00 0.00 0.00 0.00 0.00 0.01 0.03 0.03 0.03 0.03 0.03 0.04 0.04 0.04 0.02 0.01 0.01 0.01 0.01 0.01 0.01 0.02 0.05 0.05 0.05 0.07 0.06 0.06 0.05 0.01 0.00 0.00 0.00 0.00 0.00 0.00 0.00 0.00 0.00 0.00 0.00 0.00 0.00 0.00 0.00 0.00 0.00 0.00 0.00 0.00 0.00 0.00 0.00 0.00 0.01 0.01 0.01 0.02 0.02 0.04 0.04 0.10 0.18 0.18 0.19 0.26 0.28 0.28 0.26 0.32 0.37 0.36 0.36 0.33 0.29 0.29 0.29 0.26 0.16 0.10 0.10 0.11 0.15 0.15 0.22 0.34 0.40 0.40 0.46 0.41
0.00 0.00 0.00 0.00 0.00 0.00 0.00 0.00 0.00 0.00 0.00 0.00 0.00 0.00 0.00 0.00 0.00 0.00 0.01 0.03 0.03 0.03 0.02 0.02 0.04 0.04 0.06 0.04 0.03 0.03 0.02 0.01 0.01 0.01 0.01 0.04 0.04 0.10 0.16 0.10 0.10 0.06 0.03 0.00 0.00 0.00 0.00 0.00 0.00 0.00 0.00 0.00 0.00 0.00 0.00 0.00 0.00 0.00 0.01 0.02 0.02 0.02 0.01 0.00 0.00 0.00 0.01 0.00 0.00 0.00 0.01 0.01 0.03 0.03 0.07 0.15 0.15 0.15 0.19 0.21 0.21 0.21 0.25 0.28 0.35 0.35 0.36 0.32 0.30 0.30 0.30 0.22 0.18 0.18 0.12 0.16 0.16 0.17 0.27 0.32 0.32 0.43 0.46
0.00 0.00 0.00 0.00 0.00 0.00 0.00 0.00 0.00 0.00 0.00 0.00 0.00 0.00 0.00 0.00 0.00 0.01 0.02 0.02 0.02 0.02 0.02 0.02 0.04 0.04 0.08 0.07 0.05 0.05 0.03 0.01 0.00 0.00 0.01 0.02 0.02 0.13 0.28 0.13 0.13 0.06 0.03 0.01 0.00 0.00 0.01 0.00 0.00 0.00 0.00 0.00 0.00 0.00 0.00 0.00 0.00 0.00 0.01 0.01 0.01 0.01 0.01 0.01 0.01 0.01 0.01 0.01 0.01 0.01 0.01 0.01 0.03 0.03 0.04 0.09 0.09 0.12 0.16 0.19 0.19 0.20 0.19 0.23 0.29 0.29 0.30 0.33 0.30 0.30 0.30 0.29 0.26 0.26 0.27 0.24 0.24 0.20 0.20 0.22 0.22 0.31 0.41
0.00 0.00 0.00 0.00 0.00 0.00 0.00 0.00 0.00 0.00 0.00 0.00 0.00 0.00 0.00 0.01 0.01 0.01 0.02 0.01 0.01 0.01 0.01 0.03 0.05 0.05 0.08 0.09 0.10 0.10 0.04 0.02 0.00 0.00 0.01 0.02 0.02 0.09 0.14 0.28 0.28 0.19 0.10 0.04 0.02 0.02 0.01 0.01 0.00 0.00 0.00 0.00 0.00 0.00 0.00 0.00 0.00 0.00 0.00 0.00 0.00 0.01 0.01 0.01 0.00 0.00 0.01 0.00 0.01 0.01 0.01 0.01 0.01 0.01 0.03 0.04 0.04 0.08 0.14 0.18 0.18 0.18 0.14 0.17 0.21 0.21 0.23 0.31 0.31 0.31 0.29 0.30 0.28 0.28 0.23 0.23 0.23 0.22 0.19 0.15 0.15 0.19 0.29
0.00 0.00 0.00 0.00 0.00 0.00 0.00 0.00 0.00 0.00 0.00 0.00 0.00 0.00 0.00 0.01 0.01 0.01 0.01 0.01 0.01 0.01 0.02 0.04 0.05 0.05 0.05 0.06 0.10 0.10 0.05 0.02 0.01 0.01 0.00 0.04 0.04 0.05 0.05 0.14 0.14 0.44 0.34 0.18 0.27 0.27 0.03 0.01 0.03 0.03 0.01 0.00 0.00 0.00 0.00 0.00 0.00 0.00 0.00 0.00 0.00 0.00 0.01 0.02 0.02 0.02 0.02 0.01 0.00 0.00 0.01 0.02 0.01 0.01 0.01 0.05 0.05 0.05 0.15 0.19 0.19 0.13 0.12 0.10 0.15 0.15 0.17 0.23 0.32 0.32 0.31 0.30 0.32 0.32 0.28 0.23 0.23 0.20 0.20 0.17 0.17 0.12 0.21
0.00 0.00 0.00 0.00 0.00 0.00 0.00 0.00 0.00 0.00 0.00 0.00 0.00 0.00 0.00 0.01 0.01 0.01 0.01 0.01 0.01 0.01 0.02 0.03 0.05 0.05 0.04 0.05 0.07 0.07 0.08 0.04 0.01 0.01 0.01 0.03 0.03 0.03 0.04 0.07 0.07 0.09 0.27 0.35 0.20 0.20 0.11 0.04 0.07 0.07 0.04 0.00 0.00 0.00 0.00 0.00 0.00 0.00 0.00 0.00 0.00 0.00 0.00 0.01 0.01 0.01 0.02 0.02 0.01 0.01 0.01 0.01 0.02 0.02 0.01 0.01 0.01 0.05 0.09 0.17 0.17 0.10 0.07 0.08 0.09 0.09 0.14 0.18 0.26 0.26 0.34 0.28 0.30 0.30 0.27 0.26 0.26 0.21 0.20 0.16 0.16 0.12 0.08
0.00 0.00 0.00 0.00 0.00 0.00 0.00 0.00 0.00 0.00 0.00 0.00 0.00 0.00 0.00 0.01 0.01 0.01 0.01 0.01 0.01 0.01 0.02 0.03 0.05 0.05 0.05 0.05 0.08 0.08 0.09 0.05 0.04 0.04 0.04 0.04 0.04 0.02 0.03 0.03 0.03 0.03 0.05 0.10 0.05 0.05 0.19 0.13 0.09 0.09 0.08 0.01 0.00 0.00 0.00 0.00 0.00 0.00 0.00 0.00 0.00 0.00 0.00 0.00 0.00 0.00 0.01 0.02 0.02 0.02 0.01 0.01 0.01 0.01 0.02 0.03 0.03 0.03 0.07 0.09 0.09 0.06 0.05 0.06 0.11 0.11 0.16 0.16 0.22 0.22 0.28 0.33 0.27 0.27 0.25 0.28 0.28 0.25 0.18 0.10 0.10 0.12 0.08
0.00 0.00 0.00 0.00 0.00 0.00 0.00 0.00 0.00 0.00 0.00 0.00 0.00 0.00 0.01 0.01 0.01 0.01 0.01 0.01 0.01 0.01 0.02 0.04 0.04 0.04 0.03 0.05 0.08 0.08 0.11 0.10 0.09 0.09 0.10 0.07 0.07 0.07 0.02 0.03 0.03 0.02 0.03 0.03 0.01 0.01 0.05 0.21 0.27 0.27 0.12 0.12 0.06 0.06 0.00 0.00 0.00 0.00 0.00 0.00 0.00 0.00 0.00 0.00 0.00 0.00 0.00 0.00 0.01 0.01 0.01 0.01 0.02 0.02 0.04 0.05 0.05 0.03 0.02 0.02 0.02 0.03 0.04 0.09 0.12 0.12 0.14 0.16 0.20 0.20 0.22 0.28 0.26 0.26 0.21 0.29 0.29 0.28 0.19 0.09 0.09 0.05 0.07
0.00 0.00 0.00 0.00 0.00 0.00 0.00 0.00 0.00 0.00 0.00 0.00 0.00 0.00 0.01 0.01 0.01 0.01 0.01 0.01 0.01 0.01 0.02 0.03 0.03 0.03 0.03 0.05 0.06 0.06 0.13 0.14 0.11 0.11 0.12 0.13 0.13 0.09 0.02 0.03 0.03 0.03 0.02 0.01 0.01 0.01 0.07 0.18 0.33 0.33 0.18 0.07 0.05 0.05 0.01 0.00 0.00 0.00 0.00 0.00 0.00 0.00 0.00 0.00 0.00 0.00 0.00 0.00 0.00 0.00 0.01 0.01 0.01 0.01 0.02 0.03 0.03 0.04 0.02 0.03 0.03 0.04 0.04 0.08 0.11 0.11 0.14 0.15 0.19 0.19 0.16 0.23 0.23 0.23 0.20 0.22 0.22 0.27 0.21 0.12 0.12 0.04 0.03